Tallevast, FL

2:31 PM EST on December 05, 2016 (GMT -0500)
Sarasota-bradenton

Weather History for KSRQ - December, 2011

Change the Weather History Date:

Friday, December 9, 2011

  Actual Average Record
Temperature  
Mean Temperature 69 °F 64 °F  
Max Temperature 81 °F 74 °F 86 °F (1978)
Min Temperature 57 °F 55 °F 30 °F (1984)
Degree Days  
Heating Degree Days 0 3  
Month to date heating degree days 15 24  
Since 1 July heating degree days 28 57  
Cooling Degree Days 4 3  
Month to date cooling degree days 26 27  
Year to date cooling degree days 3551 3327  
Growing Degree Days 18 (Base 50)    
Moisture  
Dew Point 58 °F    
Average Humidity 78    
Maximum Humidity 86    
Minimum Humidity 62    
Precipitation  
Precipitation T in 0.07 in 3.88 in (1977)
Month to date precipitation 0.12 0.61  
Year to date precipitation 40.55 51.09  
Sea Level Pressure  
Sea Level Pressure 30.11 in    
Wind  
Wind Speed 7 mph (NNE)    
Max Wind Speed 15 mph    
Max Gust Speed 18 mph    
Visibility 10 miles    
Events Rain    
T = Trace of Precipitation, MM = Missing Value Source: NWS Daily Summary

Daily Weather History Graph

Daily Weather History Graph

Search for Another Location

Airport or City:

Trip Planner

Search our weather history database for the weather conditions in past years. The results will help you decide how hot, cold, wet, or windy it might be!

Date:

Astronomy

Dec. 09, 2011 Rise Set
Actual Time 7:08 AM EST 5:36 PM EST
Civil Twilight 6:43 AM EST 6:01 PM EST
Nautical Twilight 6:14 AM EST 6:30 PM EST
Astronomical Twilight 5:45 AM EST 6:59 PM EST
Moon 4:59 PM EST (12/9) 6:14 AM EST (12/9)
Length of Visible Light 11h 18m
Length of Day
10h 27m
Waxing Gibbous, 99% of the Moon is Illuminated
Dec 9
Waxing Gibbous
Dec 10
Full
Dec 17
Last Quarter
Dec 24
New
Jan 1
First Quarter

Hourly Weather History & Observations

Time (EST) Temp. Dew Point Humidity Pressure Visibility Wind Dir Wind Speed Gust Speed Precip Events Conditions
12:40 AM 60.8 °F 53.6 °F 77% 30.12 in - NNE 8.1 mph - N/A   Overcast
12:53 AM 61.0 °F 54.0 °F 78% 30.12 in - NNE 8.1 mph - N/A   Overcast
1:04 AM 60.8 °F 53.6 °F 77% 30.12 in - NNE 6.9 mph - N/A   Overcast
1:53 AM 59.0 °F 53.1 °F 81% 30.10 in - NE 5.8 mph - N/A   Mostly Cloudy
2:53 AM 59.0 °F 53.1 °F 81% 30.09 in - NNE 6.9 mph - N/A   Scattered Clouds
3:53 AM 57.9 °F 53.1 °F 84% 30.09 in - NE 5.8 mph - N/A   Mostly Cloudy
4:53 AM 57.9 °F 53.1 °F 84% 30.09 in - NE 5.8 mph - N/A   Overcast
5:53 AM 57.9 °F 53.1 °F 84% 30.09 in - NE 4.6 mph - N/A   Mostly Cloudy
6:53 AM 57.9 °F 53.1 °F 84% 30.11 in - NE 8.1 mph - N/A   Mostly Cloudy
7:53 AM 59.0 °F 53.6 °F 82% 30.12 in 10.0 mi NE 5.8 mph - N/A   Scattered Clouds
8:53 AM 62.1 °F 55.9 °F 80% 30.13 in 10.0 mi ENE 9.2 mph - N/A   Mostly Cloudy
9:53 AM 69.1 °F 59.0 °F 70% 30.14 in - ENE 8.1 mph - N/A   Mostly Cloudy
10:53 AM 73.9 °F 62.1 °F 66% 30.14 in 10.0 mi East 10.4 mph - N/A   Scattered Clouds
1:53 PM 78.8 °F 64.4 °F 61% 30.07 in 10.0 mi West 9.2 mph - N/A   Mostly Cloudy
2:53 PM 73.9 °F 64.0 °F 71% 30.06 in 8.0 mi North 5.8 mph - 0.00 in Rain Light Rain
3:53 PM 75.0 °F 62.1 °F 64% 30.06 in 10.0 mi NNW 8.1 mph - 0.00 in   Scattered Clouds
4:53 PM 71.1 °F 61.0 °F 70% 30.08 in 10.0 mi NNW 5.8 mph - N/A   Overcast
5:53 PM 66.9 °F 60.1 °F 79% 30.09 in 10.0 mi NW 6.9 mph - N/A   Overcast
6:53 PM 66.0 °F 60.1 °F 81% 30.10 in 10.0 mi NW 4.6 mph - 0.00 in Rain Light Rain
7:53 PM 64.9 °F 60.1 °F 84% 30.12 in 10.0 mi North 6.9 mph - 0.00 in   Mostly Cloudy
8:53 PM 66.0 °F 60.1 °F 81% 30.13 in 10.0 mi North 8.1 mph - N/A   Overcast
9:53 PM 64.9 °F 59.0 °F 81% 30.14 in 10.0 mi NNE 6.9 mph - 0.00 in   Overcast
10:04 PM 64.4 °F 59.0 °F 83% 30.14 in 10.0 mi NNE 6.9 mph - N/A   Overcast
10:53 PM 64.9 °F 59.0 °F 81% 30.14 in 10.0 mi North 6.9 mph - N/A   Overcast
11:53 PM 64.9 °F 59.0 °F 81% 30.13 in 10.0 mi NNE 6.9 mph - N/A   Mostly Cloudy